Regional Weather Roundup
Issued by NWS State College, PA

Home | Current Version | Previous Version | Graphics & Text | Print | Product List | Glossary Off
Versions: 1 2 3 4 5 6 7 8 9 10 11 12 13 14 15 16 17 18 19 20 21 22 23 24 25 26 27 28 29 30 31 32 33 34 35 36 37 38 39 40 41 42 43 44 45 46 47 48 49 50

000
ASUS41 KCTP 221403
RWRCTP

REGIONAL WEATHER ROUNDUP
NATIONAL WEATHER SERVICE STATE COLLEGE PA
900 AM EST MON JAN 22 2018

Note: "fair" indicates few or no clouds below 12,000 feet with no
significant weather and/or obstructions to visibility.

* = STATION THAT DOES NOT REPORT PRECIPITATION /E.G. RAIN...SNOW...ETC/
    THUNDER OR FOG.

PAZ002>004-007>009-013>016-020>023-029>032-221500-
WESTERN PENNSYLVANIA

CITY           SKY/WX    TMP DP  RH WIND       PRES   REMARKS
ERIE           CLOUDY   N/A N/A N/A S13       29.96F
MEADVILLE      LGT RAIN  45  45 100 VRB6      29.98F
FRANKLIN*      CLOUDY    44  44 100 S6        30.00F
NEW CASTLE     CLOUDY    46  46 100 VRB3      30.00S
BEAVER COUNTY  PTSUNNY   45  45 100 SE7       30.00S FOG
BUTLER*        LGT RAIN  47  45  93 SE9       30.02F
PITTSBURGH INT CLOUDY    47  46  97 S7        30.01S
PITTSBURGH     CLOUDY    47  45  93 SE7       30.02S
INDIANA*       FOG       45  45 100 E3        30.09S VSB 3/4
LATROBE        CLOUDY    46  46 100 CALM      30.06F
WASHINGTON CO* CLOUDY    51  46  83 S5        30.04F
$$

PAZ004>006-010>012-017>019-024>028-033>037-041-042-045-046-049>053-221500-
CENTRAL PENNSYLVANIA

CITY           SKY/WX    TMP DP  RH WIND       PRES   REMARKS
BRADFORD       CLOUDY    44  44 100 S6        30.03S FOG
DUBOIS           N/A    N/A N/A N/A MISG      30.04S
CLEARFIELD     LGT RAIN  39  39 100 NE3       30.08R VSB 1/4
JOHNSTOWN      CLOUDY    49  47  93 S5        30.06S
ALTOONA        LGT RAIN  44  42  93 E3        30.08S FOG
STATE COLLEGE  DRZL/FOG  37  37 100 CALM      30.09F VSB 1/4
WILLIAMSPORT   CLOUDY    36  36 100 CALM      30.13R FOG
SELINSGROVE    FOG       35  34  96 CALM      30.14S VSB 3/4
FT INDIANTOWN  CLOUDY    39  39 100 CALM      30.15R
CAPITAL CITY   CLOUDY    44  39  82 CALM      30.14S HAZE
HARRISBURG     CLOUDY    41  38  89 CALM      30.14R FOG
YORK           CLOUDY    43  39  86 CALM      30.13R
$$

PAZ038>040-043-044-047-048-054-055-060>062-067>071-221500-
EASTERN PENNSYLVANIA

CITY           SKY/WX    TMP DP  RH WIND       PRES   REMARKS
SCRANTON       CLOUDY    38  38 100 E5        30.13S FOG
MOUNT POCONO   CLOUDY    41  41 100 CALM      30.12S FOG
ALLENTOWN      CLOUDY    42  37  82 E3        30.17R HAZE
QUAKERTOWN*    NOT AVBL
READING        CLOUDY    40  39  97 CALM      30.15R FOG
LANCASTER      CLOUDY    42  40  92 CALM      30.14S FOG
COATESVILLE    PTSUNNY   45  39  81 CALM      30.16R
POTTSTOWN      CLOUDY    42  39  89 CALM      30.17R FOG
BLUE BELL      CLOUDY    41  37  87 CALM      30.18R
DOYLESTOWN     CLOUDY    42  38  85 CALM      30.16R
WILLOW GROVE   NOT AVBL
NORTH PHILA    CLOUDY    47  39  74 CALM      30.19R
PHILADELPHIA   CLOUDY    45  37  73 SE5       30.17R
$$




USA.gov is the U.S. government's official web portal to all federal, state and local government web resources and services.